Weather reports worldwide

Advertisment
Castellon, Spain (8286): temperature & dewpoint: 08.10.2019 14:00:00 - 14.10.2019 14:00:00 (CEST)Castellon, Spain (8286): wind speed: 08.10.2019 14:00:00 - 14.10.2019 14:00:00 (CEST)Castellon, Spain (8286): wind direction: 08.10.2019 14:00:00 - 14.10.2019 14:00:00 (CEST)Castellon, Spain (8286): reduced air pressure: 08.10.2019 14:00:00 - 14.10.2019 14:00:00 (CEST)Castellon, Spain (8286): visibility: 08.10.2019 14:00:00 - 14.10.2019 14:00:00 (CEST)Castellon, Spain (8286): precipitation: 08.10.2019 14:00:00 - 14.10.2019 14:00:00 (CEST)
Date & Time tt [°C] td [°C] ff [km/h] ff [kn] dd ppp [hPa] vv [km] rr [mm]
14.10.2019 14:00:00 - - - - - - - -
14.10.2019 13:00:00 25,1 16,0 9 5 W 1014,1 20 0,0
14.10.2019 12:00:00 24,1 16,9 13 7 WNW 1014,5 20 0,0
14.10.2019 11:00:00 22,6 17,5 5 3 NNW 1014,1 25 -
14.10.2019 10:00:00 21,0 17,6 8 4 WNW 1014,7 19 0,0
14.10.2019 09:00:00 19,2 17,2 8 4 WNW 1014,4 12 0,0
14.10.2019 08:00:00 19,1 17,2 5 3 WNW 1014,3 9 -
14.10.2019 07:00:00 19,0 17,3 5 3 NW 1014,3 13 0,0
14.10.2019 06:00:00 18,5 17,0 4 2 NW 1014,6 13 0,0
14.10.2019 05:00:00 18,4 16,7 5 3 WNW 1015,1 12 -
14.10.2019 04:00:00 18,5 16,7 5 3 NW 1015,2 17 0,0
14.10.2019 03:00:00 19,0 17,1 5 3 WNW 1015,9 19 0,0
14.10.2019 02:00:00 19,6 17,7 8 4 WNW 1016,4 19 -
14.10.2019 01:00:00 20,2 18,1 4 2 NW 1016,6 20 0,0
14.10.2019 00:00:00 20,3 18,2 4 2 WNW 1017,0 20 0,0
13.10.2019 23:00:00 20,9 18,5 5 3 NW 1017,1 20 -
13.10.2019 22:00:00 21,7 19,3 2 1 NNW 1017,0 20 0,0
13.10.2019 21:00:00 22,2 19,2 2 1 E 1016,8 20 0,0
13.10.2019 20:00:00 23,0 19,6 5 3 ESE 1016,4 20 -
13.10.2019 19:00:00 23,9 19,4 8 4 ESE 1016,2 20 0,0
13.10.2019 18:00:00 24,7 19,3 9 5 SE 1015,9 20 0,0
13.10.2019 17:00:00 25,3 19,7 11 6 ESE 1015,9 20 -
13.10.2019 16:00:00 25,8 19,2 11 6 ESE 1015,9 20 0,0
13.10.2019 15:00:00 26,4 18,3 11 6 ESE 1016,1 20 0,0
13.10.2019 14:00:00 26,3 18,7 11 6 ESE 1016,8 20 -
13.10.2019 13:00:00 26,3 19,2 8 4 ESE 1017,3 20 0,0
13.10.2019 12:00:00 25,4 18,8 4 2 SSE 1017,6 20 0,0
13.10.2019 11:00:00 22,6 18,4 4 2 WNW 1017,5 20 -
13.10.2019 10:00:00 20,4 16,6 11 6 WNW 1017,5 20 0,0
13.10.2019 09:00:00 18,8 16,4 9 5 W 1017,1 20 0,0
13.10.2019 08:00:00 18,9 16,7 9 5 WNW 1016,6 19 -
13.10.2019 07:00:00 19,3 16,9 5 3 WNW 1016,8 20 0,0
13.10.2019 06:00:00 19,4 17,2 8 4 WNW 1016,6 20 0,0
13.10.2019 05:00:00 19,4 17,5 8 4 WNW 1016,9 19 -
13.10.2019 04:00:00 19,5 17,6 8 4 WNW 1017,1 19 0,0
13.10.2019 03:00:00 19,8 17,8 5 3 WNW 1017,5 17 0,0
13.10.2019 02:00:00 20,3 18,1 5 3 WNW 1017,7 20 -
13.10.2019 01:00:00 20,6 18,4 5 3 WNW 1018,1 20 0,0
13.10.2019 00:00:00 20,9 18,1 5 3 NW 1018,2 20 0,0
12.10.2019 23:00:00 22,0 19,4 5 3 NNE 1018,0 20 -
12.10.2019 22:00:00 22,1 19,5 8 4 NNE 1017,7 20 0,0
12.10.2019 21:00:00 22,2 19,4 4 2 ENE 1017,7 20 0,0
12.10.2019 20:00:00 22,8 19,6 5 3 NE 1017,5 20 -
12.10.2019 19:00:00 23,3 19,7 9 5 E 1017,4 20 0,0
12.10.2019 18:00:00 23,8 19,7 11 6 E 1017,4 20 0,0
12.10.2019 17:00:00 24,2 19,9 13 7 ESE 1017,9 20 -
12.10.2019 16:00:00 24,5 19,6 13 7 ESE 1017,9 20 0,0
12.10.2019 15:00:00 24,9 19,3 13 7 E 1018,5 20 0,0
12.10.2019 14:00:00 24,5 18,7 11 6 ESE 1019,2 20 -
12.10.2019 13:00:00 25,6 18,0 5 3 ENE 1019,6 20 0,0
12.10.2019 12:00:00 24,5 18,4 5 3 E 1020,0 20 0,0
12.10.2019 11:00:00 22,6 18,8 4 2 NNE 1019,9 20 -
12.10.2019 10:00:00 20,8 18,0 5 3 WNW 1019,7 20 0,0
12.10.2019 09:00:00 19,6 17,4 5 3 NW 1019,2 20 0,0
12.10.2019 08:00:00 19,6 17,2 4 2 NW 1018,7 20 -
12.10.2019 07:00:00 19,8 17,4 5 3 W 1018,7 20 0,0
12.10.2019 06:00:00 19,8 17,4 4 2 NW 1018,6 20 0,0
12.10.2019 05:00:00 19,9 17,9 5 3 WNW 1019,0 20 -
12.10.2019 04:00:00 20,3 18,1 2 1 NW 1019,4 20 0,0
12.10.2019 03:00:00 20,8 18,2 2 1 N 1019,8 20 0,0
12.10.2019 02:00:00 20,9 18,3 2 1 SW 1019,7 20 -
12.10.2019 01:00:00 21,4 18,6 4 2 SW 1020,1 20 0,0
12.10.2019 00:00:00 21,5 18,5 4 2 SSW 1020,4 20 0,0
11.10.2019 23:00:00 21,5 18,5 4 2 SSW 1020,2 20 -
11.10.2019 22:00:00 21,4 18,6 4 2 S 1020,0 20 0,0
11.10.2019 21:00:00 22,0 18,6 8 4 S 1019,8 20 0,0
11.10.2019 20:00:00 22,6 18,6 5 3 S 1019,3 20 -
11.10.2019 19:00:00 23,4 18,5 9 5 S 1019,3 20 0,0
11.10.2019 18:00:00 24,5 18,9 9 5 S 1019,3 20 0,0
11.10.2019 17:00:00 25,3 18,2 13 7 S 1019,3 20 -
11.10.2019 16:00:00 26,0 18,7 15 8 S 1019,6 20 0,0
11.10.2019 15:00:00 26,9 18,2 15 8 S 1020,1 20 0,0
11.10.2019 14:00:00 27,4 17,0 16 9 S 1021,0 40 -
11.10.2019 13:00:00 27,4 17,3 13 7 SSE 1021,7 20 0,0
11.10.2019 12:00:00 25,4 17,3 9 5 SSW 1022,1 20 0,0
11.10.2019 11:00:00 23,2 17,2 4 2 S 1022,4 40 -
11.10.2019 10:00:00 21,7 16,9 4 2 SSW 1022,0 20 0,0
11.10.2019 09:00:00 20,9 16,5 2 1 N 1021,6 20 0,0
11.10.2019 08:00:00 20,8 16,6 2 1 SW 1021,2 25 -
11.10.2019 07:00:00 20,6 16,0 0 0 N 1021,2 20 0,0
11.10.2019 06:00:00 20,6 15,8 2 1 NNW 1021,2 20 0,0
11.10.2019 05:00:00 20,5 15,9 2 1 NW 1021,1 20 -
11.10.2019 04:00:00 20,5 15,5 4 2 NNW 1021,4 20 0,0
11.10.2019 03:00:00 20,3 15,3 4 2 NW 1021,9 20 0,0
11.10.2019 02:00:00 20,3 15,5 2 1 NNW 1022,1 20 -
11.10.2019 01:00:00 20,2 15,2 4 2 NNW 1022,3 20 0,0
11.10.2019 00:00:00 19,7 15,1 4 2 NNW 1022,4 20 0,0
10.10.2019 23:00:00 19,8 15,2 4 2 NW 1022,5 20 -
10.10.2019 22:00:00 21,1 16,1 5 3 NE 1022,1 20 0,0
10.10.2019 21:00:00 21,2 15,7 4 2 ESE 1021,7 20 0,0
10.10.2019 20:00:00 21,5 15,3 4 2 ENE 1021,3 20 -
10.10.2019 19:00:00 21,9 15,3 5 3 E 1021,2 20 0,0
10.10.2019 18:00:00 22,3 14,7 8 4 E 1021,1 20 0,0
10.10.2019 17:00:00 22,9 12,2 8 4 E 1021,1 20 -
10.10.2019 16:00:00 23,5 11,9 9 5 E 1021,4 20 0,0
10.10.2019 15:00:00 23,6 12,6 9 5 E 1021,6 20 0,0
10.10.2019 14:00:00 23,5 11,9 8 4 E 1022,1 35 -
10.10.2019 13:00:00 23,3 11,7 5 3 E 1022,5 20 0,0
10.10.2019 12:00:00 22,8 10,6 8 4 E 1022,6 20 0,0
10.10.2019 11:00:00 22,3 10,4 5 3 ENE 1022,6 40 -
10.10.2019 10:00:00 21,3 12,4 4 2 ENE 1022,1 20 0,0
10.10.2019 09:00:00 20,7 12,7 4 2 ENE 1021,5 19 0,0
10.10.2019 08:00:00 20,7 16,3 5 3 NW 1020,7 40 -
10.10.2019 07:00:00 20,9 13,8 4 2 NNE 1020,5 20 0,0
10.10.2019 06:00:00 20,9 15,4 9 5 NNE 1020,3 20 0,0
10.10.2019 05:00:00 20,7 15,9 8 4 NNE 1020,2 20 -
10.10.2019 04:00:00 20,6 16,8 9 5 NE 1020,1 20 0,0
10.10.2019 03:00:00 22,0 16,9 9 5 NE 1020,1 20 0,0
10.10.2019 02:00:00 22,4 18,6 2 1 ENE 1020,0 20 -
10.10.2019 01:00:00 22,4 18,6 4 2 ESE 1020,0 20 0,0
10.10.2019 00:00:00 22,5 18,5 2 1 ESE 1019,7 20 0,0
09.10.2019 23:00:00 22,7 18,5 4 2 ESE 1019,4 20 -
09.10.2019 22:00:00 22,9 18,7 4 2 ESE 1018,8 20 0,0
09.10.2019 21:00:00 22,9 18,4 4 2 SE 1018,3 20 0,0
09.10.2019 20:00:00 23,0 18,5 5 3 ESE 1017,7 20 -
09.10.2019 19:00:00 23,5 18,6 8 4 ESE 1016,8 20 0,0
09.10.2019 18:00:00 24,3 18,7 9 5 ESE 1016,4 20 0,0
09.10.2019 17:00:00 25,1 18,8 11 6 E 1016,2 20 -
09.10.2019 16:00:00 25,7 18,6 9 5 ESE 1016,1 20 0,0
09.10.2019 15:00:00 26,2 19,1 11 6 ESE 1016,1 20 0,0
09.10.2019 14:00:00 25,4 19,3 8 4 SE 1016,4 20 -
09.10.2019 13:00:00 25,5 19,4 11 6 ESE 1016,7 20 0,0
09.10.2019 12:00:00 25,1 19,0 8 4 SE 1017,2 20 0,0
09.10.2019 11:00:00 22,8 18,3 5 3 S 1017,2 20 -
09.10.2019 10:00:00 20,6 16,6 8 4 WNW 1017,0 20 0,0
09.10.2019 09:00:00 19,1 15,8 13 7 WNW 1016,4 20 0,0
09.10.2019 08:00:00 18,9 16,1 9 5 W 1016,0 20 -
09.10.2019 07:00:00 19,1 16,5 9 5 WNW 1016,0 19 0,0
09.10.2019 06:00:00 19,3 16,9 8 4 WNW 1015,9 18 0,0
09.10.2019 05:00:00 18,7 16,5 5 3 WNW 1015,7 14 -
09.10.2019 04:00:00 18,8 16,4 4 2 WNW 1015,8 19 0,0
09.10.2019 03:00:00 19,1 16,7 4 2 WNW 1016,2 18 0,0
09.10.2019 02:00:00 19,6 17,4 5 3 WNW 1016,5 19 -
09.10.2019 01:00:00 19,9 17,7 8 4 WNW 1016,7 15 0,0
09.10.2019 00:00:00 20,7 18,1 4 2 WNW 1017,1 20 0,0
08.10.2019 23:00:00 21,7 18,7 2 1 NW 1016,8 20 -
08.10.2019 22:00:00 22,0 19,0 4 2 S 1016,8 20 0,0
08.10.2019 21:00:00 22,5 19,1 4 2 SSE 1017,0 20 0,0
08.10.2019 20:00:00 23,2 18,9 5 3 SSE 1016,8 20 -
08.10.2019 19:00:00 24,4 19,0 9 5 S 1016,6 20 0,0
08.10.2019 18:00:00 25,2 18,2 9 5 S 1016,8 19 0,0
08.10.2019 17:00:00 25,5 17,7 13 7 S 1016,9 20 -
08.10.2019 16:00:00 25,9 17,3 13 7 SSE 1017,4 20 0,0
08.10.2019 15:00:00 26,7 17,2 13 7 S 1017,7 20 0,0
08.10.2019 14:00:00 26,6 16,8 13 7 SSE 1018,5 40 -

tt = temperature
td = dewpoint
ff = wind speed
dd = wind direction
ppp = reduced air pressure
vv = visibility
rr = precipitation

Next stations